Simultaneous Nadir Overpasses (SNOs) Predictions

Prediction of SNOs between LANDSAT-8 and METOP-B Satellite Orbit:

Table of predicted SNOs for the next 14.0 days since TLE Epoch: 12/24/2022
Index Date (LANDSAT-8) Time (LANDSAT-8) Lat,Lon (LANDSAT-8) SZA (LANDSAT-8 ) Date (METOP-B) Time (METOP-B) Lat,Lon (METOP-B) SZA (METOP-B ) Distance(km) Time Diff (sec)
1 12/26/2022 11:26:41 -81.11,-132.09 73.66 12/26/2022 11:25:46 -81.10,-132.24 73.70 2.69 55
2 12/26/2022 12:16:06 81.13, 35.99 106.41 12/26/2022 12:16:24 81.14, 36.18 106.44 3.23 18
3 12/29/2022 07:00:56 -81.12, -65.45 73.80 12/29/2022 07:00:08 -81.11, -65.49 73.82 0.82 48
4 12/29/2022 07:50:22 81.12, 102.23 106.21 12/29/2022 07:50:48 81.13, 102.16 106.22 1.31 26
5 01/01/2023 02:35:10 -81.12, 0.92 74.03 01/01/2023 02:34:30 -81.11, 0.83 74.06 1.59 40
6 01/01/2023 03:24:35 81.14, 168.94 106.03 01/01/2023 03:25:09 81.13, 168.83 106.03 1.97 34
7 01/03/2023 22:09:24 -81.12, 67.39 74.31 01/03/2023 22:08:52 -81.12, 67.46 74.31 1.23 32
8 01/03/2023 22:58:49 81.14,-124.62 105.74 01/03/2023 22:59:31 81.14,-124.56 105.77 0.97 42
9 01/06/2023 17:43:37 -81.13, 133.96 74.63 01/06/2023 17:43:14 -81.12, 134.03 74.63 1.20 23



Historial Predications of SNOs between LANDSAT-8 and METOP-B
